N8DNY-13 Weather Reports


Display with metric or nautical units.
time (UTC)temp
F
wind
direction
speed
MPH
gust
MPH
rain 1hr
in
rain 24hr
in
rain mn
in
humidity
%
barometer
mb
20260831210750 84 264 0.0 2.0 0.00 0.00 0.00 59 1020.7
20260831205241 86 275 0.0 0.0 0.00 0.00 0.00 61 1020.3
20260831203753 86 247 2.0 3.0 0.00 0.00 0.00 63 1020.4
20260831202221 85 281 0.0 0.0 0.00 0.00 0.00 66 1020.2
20260831200711 86 253 0.0 1.0 0.00 0.00 0.00 66 1020.4
20260831195200 86 262 0.0 1.0 0.00 0.00 0.00 64 1020.6
20260831193652 84 275 0.0 0.0 0.00 0.00 0.00 69 1020.5
20260831192151 84 273 0.0 1.0 0.00 0.00 0.00 68 1020.7
20260831190700 86 276 0.0 0.0 0.00 0.00 0.00 69 1021.1
20260831185131 85 284 0.0 1.0 0.00 0.00 0.00 68 1021.0
20260831183620 83 274 0.0 0.0 0.00 0.00 0.00 71 1020.8
20260831182110 85 275 0.0 0.0 0.00 0.00 0.00 68 1020.6
20260831180600 85 281 0.0 0.0 0.00 0.00 0.00 67 1021.2
20260831175050 86 281 0.0 1.0 0.00 0.00 0.00 68 1021.5
20260831173600 84 276 0.0 0.0 0.00 0.00 0.00 72 1021.8
20260831172031 82 277 0.0 0.0 0.00 0.00 0.00 72 1022.0
20260831170522 82 280 0.0 0.0 0.00 0.00 0.00 73 1022.1
20260831165040 83 271 0.0 0.0 0.00 0.00 0.00 71 1022.1
20260831163511 82 284 0.0 0.0 0.00 0.00 0.00 73 1022.3
20260831162022 84 279 0.0 0.0 0.00 0.00 0.00 68 1022.3
20260831160520 84 275 0.0 0.0 0.00 0.00 0.00 71 1022.0
20260831154951 81 279 0.0 0.0 0.00 0.00 0.00 73 1022.1
20260831153500 82 280 0.0 0.0 0.00 0.00 0.00 72 1022.0
20260831151931 80 278 0.0 1.0 0.00 0.00 0.00 76 1022.0
20260831150443 80 272 0.0 0.0 0.00 0.00 0.00 77 1022.2
20260831144920 78 278 0.0 0.0 0.00 0.00 0.00 80 1022.2
20260831143430 78 268 0.0 0.0 0.00 0.00 0.00 80 1021.9
20260831141900 78 280 0.0 0.0 0.00 0.00 0.00 79 1021.9
20260831140351 79 276 0.0 0.0 0.00 0.00 0.00 77 1021.7
20260831134840 78 272 0.0 0.0 0.00 0.00 0.00 78 1021.5
20260831133330 79 249 0.0 1.0 0.00 0.00 0.00 77 1021.5
20260831131820 76 249 1.0 3.0 0.00 0.00 0.00 80 1021.6
20260831130310 75 274 0.0 1.0 0.00 0.00 0.00 81 1021.3
20260831124820 75 282 2.0 3.0 0.00 0.00 0.00 82 1021.3
20260831123253 74 277 0.0 0.0 0.00 0.00 0.00 83 1021.4
20260831121750 74 274 0.0 0.0 0.00 0.00 0.00 84 1021.2
20260831120241 73 270 0.0 0.0 0.00 0.00 0.00 85 1021.2
20260831114730 73 270 0.0 0.0 0.00 0.00 0.00 85 1021.4
20260831113220 73 272 1.0 2.0 0.00 0.00 0.00 85 1021.3
20260831111710 72 266 0.0 0.0 0.00 0.00 0.00 85 1021.2
20260831110205 73 264 0.0 0.0 0.00 0.00 0.00 86 1021.0
20260831104651 72 270 0.0 0.0 0.00 0.00 0.00 87 1021.1
20260831103141 72 271 0.0 0.0 0.00 0.00 0.00 86 1021.1
20260831101630 73 266 0.0 1.0 0.00 0.00 0.00 85 1020.9
20260831100120 72 279 0.0 0.0 0.00 0.00 0.00 88 1021.1
20260831094611 71 280 0.0 0.0 0.00 0.00 0.00 90 1021.0
20260831093111 72 269 0.0 0.0 0.00 0.00 0.00 90 1021.1
20260831091600 72 268 0.0 0.0 0.00 0.00 0.00 88 1020.8
20260831090051 72 267 0.0 0.0 0.00 0.00 0.00 88 1020.9
20260831084541 73 278 0.0 0.0 0.00 0.00 0.00 86 1020.9
20260831083031 73 270 0.0 1.0 0.00 0.00 0.00 86 1020.5
20260831081520 73 275 0.0 0.0 0.00 0.00 0.00 87 1020.8
20260831080030 72 266 0.0 0.0 0.00 0.00 0.00 88 1021.2
20260831074502 72 271 0.0 0.0 0.00 0.00 0.00 89 1021.0
20260831073001 72 274 0.0 0.0 0.00 0.00 0.00 91 1021.4
20260831071501 72 275 0.0 0.0 0.00 0.00 0.00 92 1021.3
20260831065951 72 272 0.0 0.0 0.00 0.00 0.00 93 1021.3
20260831064440 72 276 0.0 0.0 0.00 0.00 0.00 92 1021.7
20260831062930 72 268 0.0 0.0 0.00 0.00 0.00 92 1021.5
20260831061421 72 268 0.0 0.0 0.00 0.00 0.00 92 1021.6
20260831055911 72 269 0.0 0.0 0.00 0.00 0.00 92 1021.5
20260831054420 72 275 0.0 0.0 0.00 0.00 0.00 92 1021.6
20260831052851 72 270 0.0 0.0 0.00 0.00 0.00 92 1021.7
20260831051402 72 274 0.0 0.0 0.00 0.00 0.00 92 1021.8
20260831045840 72 271 0.0 0.0 0.00 0.00 0.00 91 1021.9
20260831044330 72 270 0.0 0.0 0.00 0.00 0.00 91 1022.0
20260831042821 72 270 0.0 0.0 0.00 0.00 0.00 90 1022.0
20260831041330 71 270 0.0 0.0 0.00 0.00 0.00 91 1022.1
20260831035800 72 275 0.0 0.0 0.00 0.13 0.13 91 1022.0
20260831034251 71 271 0.0 0.0 0.00 0.13 0.13 90 1021.8
20260831032741 72 273 0.0 0.0 0.00 0.13 0.13 89 1022.0
20260831031231 72 264 0.0 1.0 0.00 0.13 0.13 89 1021.7
20260831025741 71 274 0.0 1.0 0.00 0.13 0.13 90 1021.7
20260831024212 71 196 0.0 2.0 0.00 0.13 0.13 90 1021.6
20260831022711 71 272 0.0 0.0 0.00 0.13 0.13 91 1021.8
20260831021201 71 273 0.0 0.0 0.00 0.13 0.13 90 1022.0
20260831015711 72 252 0.0 1.0 0.00 0.13 0.13 90 1021.6
20260831014141 72 275 0.0 0.0 0.00 0.13 0.13 89 1021.8
20260831012631 72 256 1.0 2.0 0.00 0.13 0.13 88 1021.5
20260831011121 72 266 0.0 1.0 0.00 0.13 0.13 88 1021.7
20260831005610 72 269 1.0 3.0 0.00 0.13 0.13 87 1021.4
20260831004104 73 264 0.0 1.0 0.00 0.13 0.13 87 1021.6
20260831002621 72 276 0.0 0.0 0.00 0.13 0.13 87 1021.7
20260831001100 72 263 0.0 1.0 0.00 0.13 0.13 87 1021.8
20260830235551 72 273 0.0 0.0 0.00 0.13 0.13 87 1021.8
20260830234040 71 276 0.0 1.0 0.00 0.13 0.13 87 1022.0
20260830232530 71 269 0.0 0.0 0.00 0.13 0.13 88 1021.9
20260830231020 71 270 0.0 0.0 0.00 0.13 0.13 89 1022.1
20260830225511 72 273 0.0 0.0 0.00 0.13 0.13 89 1022.3
20260830224002 72 274 0.0 0.0 0.00 0.13 0.13 87 1022.7
20260830222501 74 280 0.0 0.0 0.19 0.12 0.12 85 1022.7
20260830220952 76 275 0.0 0.0 0.00 0.09 0.09 79 1022.8
20260830215440 76 275 0.0 1.0 0.00 0.09 0.09 76 1021.8
20260830213930 78 273 0.0 0.0 0.00 0.09 0.09 74 1021.7
20260830212421 78 274 0.0 0.0 0.00 0.09 0.09 73 1021.4